When you browse on this site, cookies collect data to enhance your experience and personalize the content and advertising you see.
Visit our Privacy Policy to learn more. By continuing to use the site, you agree to this use of cookies and data.
  • In Latvia
  • List of Countries
  • For 7 days
  • Water Temperature
  • Weather Map
  • Weather Widgets
  • user-avatar
    Login

    Hourly Weather Annoslaw

    Today, 21 February, Friday

    Time Temperature Precipitation Wind Pressure Humidity
    00:00 0°C° 0 mm 5 mps 748 mmHg 78%
    01:00 -1°C° 0 mm 6 mps 747 mmHg 79%
    02:00 -1°C° 0 mm 6 mps 746 mmHg 77%
    03:00 -1°C° 0 mm 6 mps 745 mmHg 75%
    04:00 -1°C° 0 mm 6 mps 745 mmHg 73%
    05:00 -1°C° 0 mm 6 mps 744 mmHg 74%
    06:00 +1°C° 0 mm 6 mps 743 mmHg 75%
    07:00 +1°C° 0 mm 6 mps 743 mmHg 70%
    14:00 +1°C° 0 mm 8 mps 747 mmHg 75%
    15:00 +2°C° 0 mm 8 mps 748 mmHg 69%
    16:00 +3°C° 0 mm 7 mps 749 mmHg 63%
    17:00 +3°C° 0 mm 6 mps 750 mmHg 68%
    18:00 +2°C° 0 mm 5 mps 750 mmHg 74%
    19:00 +1°C° 0 mm 5 mps 751 mmHg 79%
    20:00 +1°C° 0 mm 4 mps 752 mmHg 82%
    21:00 +1°C° 0 mm 4 mps 752 mmHg 84%
    22:00 0°C° 0 mm 4 mps 752 mmHg 87%
    23:00 0°C° 0 mm 4 mps 752 mmHg 88%

    Tomorrow, 22 February, Saturday

    Time Temperature Precipitation Wind Pressure Humidity
    00:00 0°C° 0 mm 4 mps 753 mmHg 89%
    01:00 -1°C° 0 mm 4 mps 753 mmHg 90%
    02:00 -1°C° 0 mm 4 mps 753 mmHg 90%
    03:00 -1°C° 0 mm 4 mps 753 mmHg 91%
    04:00 -1°C° 0 mm 4 mps 752 mmHg 91%
    05:00 -1°C° 0 mm 4 mps 752 mmHg 89%
    06:00 -1°C° 0 mm 5 mps 752 mmHg 88%
    07:00 -1°C° 0 mm 5 mps 752 mmHg 86%
    08:00 -1°C° 0 mm 6 mps 751 mmHg 78%
    09:00 +2°C° 0 mm 7 mps 751 mmHg 70%
    10:00 +2°C° 0 mm 8 mps 750 mmHg 63%
    11:00 +4°C° 0 mm 8 mps 749 mmHg 62%
    12:00 +3°C° 0 mm 9 mps 748 mmHg 61%
    13:00 +5°C° 0 mm 9 mps 747 mmHg 60%
    14:00 +5°C° 0 mm 9 mps 747 mmHg 58%
    15:00 +5°C° 0 mm 9 mps 746 mmHg 56%
    16:00 +6°C° 0 mm 9 mps 745 mmHg 53%
    17:00 +6°C° 0 mm 9 mps 744 mmHg 53%
    18:00 +6°C° 0 mm 9 mps 744 mmHg 53%
    19:00 +6°C° 0 mm 9 mps 744 mmHg 53%
    20:00 +6°C° 0 mm 9 mps 744 mmHg 54%
    21:00 +6°C° 0 mm 9 mps 743 mmHg 55%
    22:00 +6°C° 0 mm 10 mps 743 mmHg 56%
    23:00 +6°C° 0.3 mm 9 mps 743 mmHg 65%

    Day after tomorrow, 23 February, Sunday

    Time Temperature Precipitation Wind Pressure Humidity
    00:00 +5°C° 0.3 mm 8 mps 743 mmHg 74%
    01:00 +4°C° 0.3 mm 8 mps 743 mmHg 83%
    02:00 +4°C° 0.7 mm 8 mps 743 mmHg 78%
    03:00 +2°C° 0.7 mm 8 mps 743 mmHg 72%
    04:00 +1°C° 0.7 mm 9 mps 743 mmHg 67%
    05:00 +1°C° 0.1 mm 8 mps 744 mmHg 74%
    06:00 0°C° 0.1 mm 8 mps 744 mmHg 81%
    07:00 0°C° 0.1 mm 8 mps 745 mmHg 88%
    08:00 0°C° 0.1 mm 8 mps 745 mmHg 79%
    09:00 +1°C° 0.1 mm 9 mps 745 mmHg 70%
    10:00 +2°C° 0.1 mm 9 mps 745 mmHg 60%
    11:00 +2°C° 0 mm 9 mps 745 mmHg 59%
    12:00 +2°C° 0 mm 9 mps 744 mmHg 58%
    13:00 +3°C° 0 mm 9 mps 744 mmHg 57%
    14:00 +2°C° 0.1 mm 8 mps 743 mmHg 63%
    15:00 +3°C° 0.1 mm 7 mps 742 mmHg 68%
    16:00 +3°C° 0.1 mm 6 mps 741 mmHg 74%
    17:00 +2°C° 0.6 mm 6 mps 740 mmHg 81%
    18:00 +2°C° 0.6 mm 5 mps 738 mmHg 88%
    19:00 +1°C° 0.6 mm 5 mps 737 mmHg 95%
    20:00 +3°C° 2.2 mm 4 mps 735 mmHg 95%
    21:00 +3°C° 2.2 mm 4 mps 733 mmHg 96%
    22:00 +3°C° 2.2 mm 3 mps 731 mmHg 96%
    23:00 +2°C° 0.6 mm 6 mps 732 mmHg 96%

    24 February, Monday

    Time Temperature Precipitation Wind Pressure Humidity
    00:00 0°C° 0.6 mm 9 mps 733 mmHg 95%
    01:00 -1°C° 0.6 mm 11 mps 733 mmHg 94%
    02:00 -1°C° 0.6 mm 11 mps 735 mmHg 92%
    03:00 -2°C° 0.6 mm 11 mps 737 mmHg 91%
    04:00 -2°C° 0.6 mm 11 mps 739 mmHg 89%
    05:00 -2°C° 0.1 mm 11 mps 740 mmHg 88%
    06:00 -2°C° 0.1 mm 10 mps 741 mmHg 87%
    07:00 -2°C° 0.1 mm 10 mps 743 mmHg 85%
    08:00 -2°C° 0.1 mm 10 mps 744 mmHg 83%
    09:00 0°C° 0.1 mm 9 mps 745 mmHg 81%
    10:00 0°C° 0.1 mm 8 mps 746 mmHg 79%
    11:00 +1°C° 0.1 mm 8 mps 746 mmHg 76%
    12:00 +1°C° 0.1 mm 8 mps 747 mmHg 73%
    13:00 +3°C° 0.1 mm 7 mps 748 mmHg 70%
    14:00 +3°C° 0 mm 6 mps 748 mmHg 69%
    15:00 +3°C° 0 mm 6 mps 748 mmHg 67%
    16:00 +3°C° 0 mm 5 mps 748 mmHg 66%
    17:00 +3°C° 0 mm 4 mps 748 mmHg 70%
    18:00 +1°C° 0 mm 4 mps 748 mmHg 74%
    19:00 +2°C° 0 mm 3 mps 748 mmHg 78%
    20:00 +1°C° 0 mm 3 mps 748 mmHg 78%
    21:00 +1°C° 0 mm 3 mps 747 mmHg 78%
    22:00 0°C° 0 mm 4 mps 747 mmHg 79%
    23:00 0°C° 0 mm 4 mps 746 mmHg 77%

    25 February, Tuesday

    Time Temperature Precipitation Wind Pressure Humidity
    00:00 +1°C° 0 mm 5 mps 745 mmHg 76%
    01:00 +1°C° 0 mm 6 mps 744 mmHg 74%
    02:00 0°C° 0.1 mm 7 mps 743 mmHg 73%
    03:00 +2°C° 0.1 mm 7 mps 742 mmHg 72%
    04:00 +1°C° 0.1 mm 8 mps 741 mmHg 71%
    05:00 +2°C° 0.1 mm 8 mps 740 mmHg 74%
    06:00 +2°C° 0.1 mm 8 mps 739 mmHg 76%
    07:00 +4°C° 0.1 mm 8 mps 739 mmHg 79%
    08:00 +5°C° 0.1 mm 8 mps 739 mmHg 79%
    09:00 +5°C° 0.1 mm 8 mps 738 mmHg 80%
    10:00 +6°C° 0.1 mm 8 mps 738 mmHg 80%
    11:00 +6°C° 0 mm 8 mps 738 mmHg 79%
    12:00 +6°C° 0 mm 7 mps 737 mmHg 79%
    13:00 +8°C° 0 mm 7 mps 737 mmHg 78%
    14:00 +8°C° 0.1 mm 7 mps 737 mmHg 77%
    15:00 +8°C° 0.1 mm 6 mps 736 mmHg 77%
    16:00 +8°C° 0.1 mm 6 mps 736 mmHg 77%
    17:00 +7°C° 0.3 mm 6 mps 736 mmHg 80%
    18:00 +7°C° 0.3 mm 6 mps 736 mmHg 84%
    19:00 +5°C° 0.3 mm 6 mps 735 mmHg 87%
    20:00 +6°C° 0.3 mm 5 mps 735 mmHg 88%
    21:00 +6°C° 0.3 mm 5 mps 735 mmHg 88%
    22:00 +5°C° 0.3 mm 5 mps 735 mmHg 88%
    23:00 +5°C° 0.1 mm 4 mps 735 mmHg 86%

    26 February, Wednesday

    Time Temperature Precipitation Wind Pressure Humidity
    00:00 +4°C° 0.1 mm 3 mps 735 mmHg 84%
    01:00 +3°C° 0.1 mm 3 mps 734 mmHg 82%
    02:00 +3°C° 0 mm 3 mps 734 mmHg 82%
    03:00 +3°C° 0 mm 4 mps 734 mmHg 82%
    04:00 +1°C° 0 mm 4 mps 733 mmHg 82%
    05:00 +1°C° 0 mm 4 mps 733 mmHg 82%
    06:00 +1°C° 0 mm 4 mps 733 mmHg 82%
    07:00 0°C° 0 mm 4 mps 733 mmHg 82%
    08:00 +1°C° 0 mm 5 mps 732 mmHg 75%
    09:00 +3°C° 0 mm 6 mps 732 mmHg 69%
    10:00 +4°C° 0 mm 7 mps 732 mmHg 62%
    11:00 +4°C° 0 mm 8 mps 731 mmHg 57%
    12:00 +3°C° 0 mm 9 mps 731 mmHg 53%
    13:00 +5°C° 0 mm 9 mps 730 mmHg 48%
    14:00 +5°C° 0 mm 9 mps 730 mmHg 47%
    15:00 +4°C° 0 mm 8 mps 730 mmHg 46%
    16:00 +4°C° 0 mm 7 mps 730 mmHg 44%
    17:00 +3°C° 0 mm 6 mps 730 mmHg 50%
    18:00 +3°C° 0 mm 4 mps 730 mmHg 55%
    19:00 +2°C° 0 mm 3 mps 731 mmHg 60%
    20:00 +1°C° 0 mm 4 mps 731 mmHg 65%
    21:00 0°C° 0 mm 4 mps 731 mmHg 70%
    22:00 0°C° 0 mm 5 mps 732 mmHg 75%
    23:00 0°C° 0.1 mm 5 mps 732 mmHg 81%
    Show more